Regional Weather Roundup
Issued by NWS

Home | Current Version | Previous Version | Graphics & Text | Print | Product List | Glossary On
Versions: 1 2 3 4 5 6 7 8 9 10 11 12 13 14 15 16 17 18 19 20 21 22 23 24 25 26 27 28 29 30 31 32 33 34 35 36 37 38 39 40 41 42 43 44 45 46 47 48 49 50
228
ASUS45 KBOI 182210
RWRID

IDAHO REGIONAL WEATHER ROUNDUP
NATIONAL WEATHER SERVICE BOISE ID
400 PM MDT WED APR 18 2018

NOTE: "FAIR" INDICATES FEW OR NO CLOUDS BELOW 12000 FEET
WITH NO SIGNIFICANT WEATHER AND/OR OBSTRUCTIONS TO VISIBILITY

IDZ012-014-182300-
SOUTHWEST IDAHO


CITY           SKY/WX    TMP DP  RH WIND       PRES   REMARKS
BOISE          MOSUNNY   61  20  20 S17       30.01F
CALDWELL       MOSUNNY   63  23  21 SE17      30.00F
MOUNTAIN HOME  MOSUNNY   61  22  22 E18G24    29.99F
$$

IDZ016-017-182300-
SOUTHCENTRAL IDAHO


CITY           SKY/WX    TMP DP  RH WIND       PRES   REMARKS
BURLEY         PTSUNNY   56  21  25 SE12G21   30.05F
JEROME         MOSUNNY   60  20  21 E13G23    30.04F
TWIN FALLS     MOSUNNY   58  21  24 S15G23    30.03F
$$

IDZ019>023-182300-
SOUTHEAST IDAHO


CITY           SKY/WX    TMP DP  RH WIND       PRES   REMARKS
IDAHO FALLS    MOSUNNY   50  16  25 N8        30.14F
POCATELLO      PTSUNNY   55  19  24 S8        30.11F
REXBURG        MOSUNNY   48  16  27 SW9       30.14F
$$

IDZ006-010-011-018-031-032-182300-
CENTRAL IDAHO MOUNTAINS


CITY           SKY/WX    TMP DP  RH WIND       PRES   REMARKS
MCCALL         MOSUNNY   49  17  28 NW5       30.05F
STANLEY          N/A     43  11  27 SE8G18    30.07F
SALMON         NOT AVBL
CHALLIS        MOSUNNY   52   9  17 CALM      30.07F
$$

IDZ002-004-006-007-026-182300-
NORTHERN IDAHO


CITY           SKY/WX    TMP DP  RH WIND       PRES   REMARKS
LEWISTON       MOSUNNY   61  32  33 NE10      30.11F
LOWELL           N/A     64  32  30 N5        30.10F
COEUR D`ALENE  PTSUNNY   52  25  35 VRB5      30.17F
MULLAN PASS    PTSUNNY   35  21  56 S5        30.13F WCI  31
$$




USA.gov is the U.S. government's official web portal to all federal, state and local government web resources and services.